CYGFM06

Last updated on Sat Dec 17 2022 00:02:23 GMT+0000 (Coordinated Universal Time)

1 41889U 16078F 22350.57792353 .00010777 00000+0 51331-3 0 9992 2 41889 34.9565 135.7533 0013434 296.2231 63.7100 15.18285596332534
UTC large
Height (km)
Speed (km/s)
/
Latitude / Longitude
Inclination (degrees)
Orbital Period (minutes)
Azimuth
Elevation
Range (km)
Doppler Factor

Next 0 passes for location: London (51.5072 / 0.1276)

Sorry there are no passes over London.